Strona główna
METAR-TAF:

METAR-TAF

Lotnisko :

Pine Ridge, Dakota Południowa, Stany Zjednoczone

Szerokość geograficzna: 43-01-32N, Długość geograficzna: 102-31-23W, wysokość: 1015 m

Aktualna obserwacja pogody

Raport powstał 15 minut temu, godzina 04:52 UTC
Cisza
Temperatura -3°C
Wilgotność 86%
Ciśnienie 1020 hPa
Widzialność: 16.1 km
bezchmurnie

METAR: KIEN 070452Z AUTO 00000KT 10SM CLR M03/M05 A3011 RMK AO2 SLP226 T10281050

czas: 22:07 (05:07 UTC)


TAF: brakujący

Obserwacja i prognoza pogody dla ponad 4000 lotnisk (raport METAR i TAF).

Dostępne stacje oznaczono żółtymi i czerwonymi punktami na mapie.

Najedź kursorem aby zobaczyć nazwę stacji.

Kliknij aby zobaczyć obserwacje i prognozy pogody.

Aby zmienić mapę: kliknij na zielony przycisk z czarnym krzyżykiem, aby powiększyć; na zielony przycisk z myślnikiem, aby pomniejszyć; na zielone strzałki, aby przejść do map sąsiednich.


METAR-TAF: